Regional Weather Roundup
Issued by NWS Bismarck, ND

Home | Current Version | Previous Version | Text Only | Print | Product List | Glossary On
Versions: 1 2 3 4 5 6 7 8 9 10 11 12 13 14 15 16 17 18 19 20 21 22 23 24 25 26 27 28 29 30 31 32 33 34 35 36 37 38 39 40 41 42 43 44 45 46 47 48 49 50
000
ASUS43 KBIS 302010
RWRBIS

NWR BROADCAST TEXT
NATIONAL WEATHER SERVICE BISMARCK ND
300 PM CDT SAT APR 30 2016

NOTE: "FAIR" INDICATES FEW OR NO CLOUDS BELOW 12,000 FEET WITH NO
SIGNIFICANT WEATHER AND/OR OBSTRUCTIONS TO VISIBILITY.


CITY           SKY/WX    TMP DP  RH WIND       PRES   REMARKS
WILLISTON      SUNNY     62  29  28 E12       30.25F
MINOT          MOSUNNY   66  28  24 E14G24    30.24S
MINOT AFB      SUNNY     61  28  29 E14G24    30.23F
BISMARCK       SUNNY     60  29  30 E23G32    30.19S
DICKINSON      CLOUDY    54  30  40 NE20      30.19S
GARRISON         N/A     59  29  31 E18G26    30.23S
HETTINGER ARPT CLOUDY    55  34  45 NE18G25   30.18R
JAMESTOWN      SUNNY     60  29  30 E21G29    30.16F
BEACH          MOCLDY    55  27  33 NE16      30.24S
CARRINGTON     FAIR      59  27  29 E17G25    30.22F
HAZEN          FAIR      59  28  31 E13G24    30.24S
LINTON         FAIR      59  34  38 NE18G29   30.17S
MANDAN         FAIR      57  28  33 E21G30    30.19S
OAKES            N/A    N/A N/A N/A MISG        N/A
RUGBY          FAIR      59  27  29 NE20G28   30.25S
STANLEY        FAIR      59  27  29 E12G25    30.27S
WATFORD CITY   FAIR      59  28  31 E12G26    30.25S
$$

CITY           SKY/WX    TMP DP  RH WIND       PRES   REMARKS
GRAND FORKS    MOSUNNY   61  28  28 NE22G29   30.21F
GRAND FORKS AF SUNNY     60  25  25 E20G29    30.21F
DEVILS LAKE    SUNNY     58  29  33 NE15G26   30.24F
FARGO          CLOUDY    64  27  24 E17G28    30.14F
CANDO          FAIR      61  28  29 E16G23    30.28S
CAVALIER       FAIR      59  32  36 NE13G23   30.26S
GRAFTON        FAIR      61  30  31 NE14G28   30.25F
GWINNER        FAIR      61  32  33 NE23G32   30.12F
LANGDON        FAIR      61  30  31 NE18G26   30.26S
ROLLA          FAIR      59  25  27 NE21G28   30.28S
WALHALLA       FAIR      59  32  36 NE16G28   30.27S
$$

CITY           SKY/WX    TMP DP  RH WIND       PRES   REMARKS
ABERDEEN       PTSUNNY   58  36  43 NE24G32   30.07F
MOBRIDGE       CLOUDY    60  32  34 NE25G35   30.08F
BUFFALO          N/A     54  32  43 E17G25    30.09S
RAPID CITY     CLOUDY    48  36  63 N20       30.09R
GLASGOW        SUNNY     59  29  31 SE8       30.25S
SIDNEY         SUNNY     61  30  31 NE13G24   30.24S
WOLF POINT     SUNNY     63  31  30 E15       30.25S
GLENDIVE       CLOUDY    59  30  33 E16       30.24S
MILES CITY     CLOUDY    58  30  34 E9G18     30.20R
BAKER          CLOUDY    57  30  35 E15       30.20S
$$

CITY           SKY/WX    TMP DP  RH WIND       PRES   REMARKS
BILLINGS       CLOUDY    50  34  54 NE12      30.20S
GREAT FALLS    CLOUDY    52  35  52 MISG      30.22R
REGINA         MOSUNNY   63  23  22 SE10G20   30.30S
ESTEVAN        MOSUNNY   63  25  23 E18       30.27F
$$




USA.gov is the U.S. government's official web portal to all federal, state and local government web resources and services.